Time,TemperatureF,DewpointF,PressureIn,WindDirection,WindDirectionDegrees,WindSpeedMPH,WindSpeedGustMPH,Humidity,HourlyPrecipIn,Conditions,Clouds,dailyrainin,SoftwareType,DateUTC
2013-11-29 00:00:00,44.1,28.9,30.53,SW,229,0.0,9.0,55,0.00,CLR,,0.00,WeatherDisplay:10.37,2013-11-29 05:00:00,
2013-11-29 00:10:00,44.6,29.4,30.53,SSW,206,0.0,4.0,55,0.00,CLR,,0.00,WeatherDisplay:10.37,2013-11-29 05:10:00,
2013-11-29 00:20:00,45.0,29.3,30.53,WSW,239,1.0,7.0,54,0.00,CLR,,0.00,WeatherDisplay:10.37,2013-11-29 05:20:00,
2013-11-29 00:30:00,45.0,29.3,30.52,SW,227,0.0,6.0,54,0.00,CLR,,0.00,WeatherDisplay:10.37,2013-11-29 05:30:00,
2013-11-29 00:40:00,45.7,30.0,30.52,SW,223,0.0,5.0,54,0.00,CLR,,0.00,WeatherDisplay:10.37,2013-11-29 05:40:00,
2013-11-29 00:50:00,46.1,29.9,30.51,SW,236,2.0,9.0,53,0.00,CLR,,0.00,WeatherDisplay:10.37,2013-11-29 05:50:00,
2013-11-29 01:00:00,46.3,30.1,30.51,SSE,153,0.0,8.0,53,0.00,CLR,,0.00,WeatherDisplay:10.37,2013-11-29 06:00:00,
2013-11-29 01:10:00,46.3,31.0,30.51,SSW,209,0.0,3.0,55,0.00,CLR,,0.00,WeatherDisplay:10.37,2013-11-29 06:10:00,
2013-11-29 01:20:00,46.7,30.5,30.50,SE,145,1.0,4.0,53,0.00,CLR,,0.00,WeatherDisplay:10.37,2013-11-29 06:20:00,
2013-11-29 01:30:00,46.7,30.0,30.49,SE,133,2.0,4.0,52,0.00,CLR,,0.00,WeatherDisplay:10.37,2013-11-29 06:30:00,
2013-11-29 01:40:00,47.0,30.7,30.49,SE,132,2.0,5.0,53,0.00,CLR,,0.00,WeatherDisplay:10.37,2013-11-29 06:40:00,
2013-11-29 01:50:00,47.1,30.8,30.48,ESE,112,0.0,4.0,53,0.00,CLR,,0.00,WeatherDisplay:10.37,2013-11-29 06:50:00,
2013-11-29 02:00:00,47.2,31.4,30.48,SSW,211,1.0,7.0,54,0.00,CLR,,0.00,WeatherDisplay:10.37,2013-11-29 07:00:00,
2013-11-29 02:10:00,47.2,30.5,30.48,SSE,147,2.0,4.0,52,0.00,CLR,,0.00,WeatherDisplay:10.37,2013-11-29 07:10:00,
2013-11-29 02:20:00,47.2,30.9,30.48,SE,128,0.0,4.0,53,0.00,CLR,,0.00,WeatherDisplay:10.37,2013-11-29 07:20:00,
2013-11-29 02:30:00,46.9,30.6,30.48,SSW,197,0.0,4.0,53,0.00,CLR,,0.00,WeatherDisplay:10.37,2013-11-29 07:30:00,
2013-11-29 02:40:00,46.5,30.7,30.48,ESE,112,0.0,5.0,54,0.00,CLR,,0.00,WeatherDisplay:10.37,2013-11-29 07:40:00,
2013-11-29 02:50:00,46.6,30.4,30.47,ESE,112,0.0,4.0,53,0.00,CLR,,0.00,WeatherDisplay:10.37,2013-11-29 07:50:00,
2013-11-29 03:00:00,46.6,30.8,30.46,South,174,0.0,5.0,54,0.00,CLR,,0.00,WeatherDisplay:10.37,2013-11-29 08:00:00,
2013-11-29 03:10:00,46.7,30.9,30.46,SE,138,0.0,3.0,54,0.00,CLR,,0.00,WeatherDisplay:10.37,2013-11-29 08:10:00,
2013-11-29 03:20:00,46.7,31.8,30.46,ESE,112,0.0,4.0,56,0.00,CLR,,0.00,WeatherDisplay:10.37,2013-11-29 08:20:00,
2013-11-29 03:30:00,46.8,31.9,30.46,SE,143,0.0,5.0,56,0.00,CLR,,0.00,WeatherDisplay:10.37,2013-11-29 08:30:00,
2013-11-29 03:40:00,46.8,31.5,30.46,SSW,192,1.0,5.0,55,0.00,CLR,,0.00,WeatherDisplay:10.37,2013-11-29 08:40:00,
2013-11-29 03:50:00,46.7,31.8,30.46,SE,135,0.0,3.0,56,0.00,CLR,,0.00,WeatherDisplay:10.37,2013-11-29 08:50:00,
2013-11-29 04:00:00,46.8,31.5,30.46,SE,135,0.0,1.0,55,0.00,CLR,,0.00,WeatherDisplay:10.37,2013-11-29 09:00:00,
2013-11-29 04:10:00,46.6,31.7,30.46,SE,135,0.0,4.0,56,0.00,CLR,,0.00,WeatherDisplay:10.37,2013-11-29 09:10:00,
2013-11-29 04:20:00,46.5,31.2,30.46,SE,133,0.0,4.0,55,0.00,CLR,,0.00,WeatherDisplay:10.37,2013-11-29 09:20:00,
2013-11-29 04:30:00,46.4,31.5,30.47,SE,131,1.0,5.0,56,0.00,CLR,,0.00,WeatherDisplay:10.37,2013-11-29 09:30:00,
2013-11-29 04:40:00,46.3,31.9,30.47,SE,135,0.0,1.0,57,0.00,CLR,,0.00,WeatherDisplay:10.37,2013-11-29 09:40:00,
2013-11-29 04:50:00,46.1,31.7,30.47,SE,135,0.0,1.0,57,0.00,CLR,,0.00,WeatherDisplay:10.37,2013-11-29 09:50:00,
2013-11-29 05:00:00,45.8,31.9,30.47,SE,135,0.0,1.0,58,0.00,CLR,,0.00,WeatherDisplay:10.37,2013-11-29 10:00:00,
2013-11-29 05:10:00,45.4,31.5,30.47,SE,135,0.0,1.0,58,0.00,CLR,,0.00,WeatherDisplay:10.37,2013-11-29 10:10:00,
2013-11-29 05:20:00,45.0,31.5,30.47,SE,135,0.0,1.0,59,0.00,CLR,,0.00,WeatherDisplay:10.37,2013-11-29 10:20:00,
2013-11-29 05:30:00,44.5,31.1,30.47,SE,135,0.0,1.0,59,0.00,CLR,,0.00,WeatherDisplay:10.37,2013-11-29 10:30:00,
2013-11-29 05:40:00,44.2,31.2,30.47,SE,135,0.0,1.0,60,0.00,CLR,,0.00,WeatherDisplay:10.37,2013-11-29 10:40:00,
2013-11-29 05:50:00,43.8,30.8,30.47,SE,135,0.0,0.0,60,0.00,CLR,,0.00,WeatherDisplay:10.37,2013-11-29 10:50:00,
2013-11-29 06:00:00,43.3,30.7,30.47,SE,135,0.0,0.0,61,0.00,CLR,,0.00,WeatherDisplay:10.37,2013-11-29 11:00:00,
2013-11-29 06:10:00,42.7,30.6,30.47,SE,135,0.0,0.0,62,0.00,CLR,,0.00,WeatherDisplay:10.37,2013-11-29 11:10:00,
2013-11-29 06:20:00,41.7,30.4,30.47,SE,135,0.0,1.0,64,0.00,CLR,,0.00,WeatherDisplay:10.37,2013-11-29 11:20:00,
2013-11-29 06:30:00,41.4,30.1,30.47,SE,135,0.0,0.0,64,0.00,CLR,,0.00,WeatherDisplay:10.37,2013-11-29 11:30:00,
2013-11-29 06:40:00,41.4,29.7,30.47,SE,135,0.0,1.0,63,0.00,CLR,,0.00,WeatherDisplay:10.37,2013-11-29 11:40:00,
2013-11-29 06:50:00,41.4,29.7,30.47,SE,135,0.0,2.0,63,0.00,CLR,,0.00,WeatherDisplay:10.37,2013-11-29 11:50:00,
2013-11-29 07:00:00,41.4,29.7,30.47,SE,135,0.0,0.0,63,0.00,CLR,,0.00,WeatherDisplay:10.37,2013-11-29 12:00:00,
2013-11-29 07:10:00,41.1,29.5,30.47,SE,135,0.0,0.0,63,0.00,CLR,,0.00,WeatherDisplay:10.37,2013-11-29 12:10:00,
2013-11-29 07:20:00,40.8,29.6,30.47,SE,135,0.0,1.0,64,0.00,CLR,,0.00,WeatherDisplay:10.37,2013-11-29 12:20:00,
2013-11-29 07:30:00,40.7,29.1,30.47,SE,135,0.0,0.0,63,0.00,CLR,,0.00,WeatherDisplay:10.37,2013-11-29 12:30:00,
2013-11-29 07:40:00,40.6,29.0,30.47,SE,135,0.0,0.0,63,0.00,CLR,,0.00,WeatherDisplay:10.37,2013-11-29 12:40:00,
2013-11-29 07:50:00,40.3,29.1,30.47,SE,135,0.0,1.0,64,0.00,CLR,,0.00,WeatherDisplay:10.37,2013-11-29 12:50:00,
2013-11-29 08:00:00,40.2,29.0,30.47,SE,135,0.0,0.0,64,0.00,CLR,,0.00,WeatherDisplay:10.37,2013-11-29 13:00:00,
2013-11-29 08:10:00,40.2,29.4,30.47,SE,135,0.0,1.0,65,0.00,CLR,,0.00,WeatherDisplay:10.37,2013-11-29 13:10:00,
2013-11-29 08:20:00,40.3,29.5,30.47,SE,135,0.0,1.0,65,0.00,CLR,,0.00,WeatherDisplay:10.37,2013-11-29 13:20:00,
2013-11-29 08:30:00,40.4,29.6,30.47,SE,135,0.0,1.0,65,0.00,CLR,,0.00,WeatherDisplay:10.37,2013-11-29 13:30:00,
2013-11-29 08:40:00,40.5,29.7,30.47,SE,135,0.0,2.0,65,0.00,CLR,,0.00,WeatherDisplay:10.37,2013-11-29 13:40:00,
2013-11-29 08:50:00,40.3,29.8,30.46,SE,135,0.0,0.0,66,0.00,CLR,,0.00,WeatherDisplay:10.37,2013-11-29 13:50:00,
2013-11-29 09:00:00,40.1,29.6,30.46,SE,135,0.0,1.0,66,0.00,CLR,,0.00,WeatherDisplay:10.37,2013-11-29 14:00:00,
2013-11-29 09:10:00,39.9,29.5,30.46,SE,135,0.0,0.0,66,0.00,CLR,,0.00,WeatherDisplay:10.37,2013-11-29 14:10:00,
2013-11-29 09:20:00,39.6,29.5,30.46,SE,135,0.0,0.0,67,0.00,CLR,,0.00,WeatherDisplay:10.37,2013-11-29 14:20:00,
2013-11-29 09:30:00,39.4,29.3,30.46,SE,135,0.0,0.0,67,0.00,CLR,,0.00,WeatherDisplay:10.37,2013-11-29 14:30:00,
2013-11-29 09:40:00,39.1,29.1,30.46,SE,135,0.0,0.0,67,0.00,CLR,,0.00,WeatherDisplay:10.37,2013-11-29 14:40:00,
2013-11-29 09:50:00,38.7,29.0,30.46,SE,135,0.0,0.0,68,0.00,CLR,,0.00,WeatherDisplay:10.37,2013-11-29 14:50:00,
2013-11-29 10:00:00,38.3,29.0,30.46,SE,135,0.0,0.0,69,0.00,CLR,,0.00,WeatherDisplay:10.37,2013-11-29 15:00:00,
2013-11-29 10:10:00,38.3,29.0,30.46,SE,135,0.0,0.0,69,0.00,CLR,,0.00,WeatherDisplay:10.37,2013-11-29 15:10:00,
2013-11-29 10:20:00,38.3,29.0,30.45,SE,135,0.0,1.0,69,0.00,CLR,,0.00,WeatherDisplay:10.37,2013-11-29 15:20:00,
2013-11-29 10:30:00,38.3,29.0,30.46,SE,135,0.0,1.0,69,0.00,CLR,,0.00,WeatherDisplay:10.37,2013-11-29 15:30:00,
2013-11-29 10:40:00,38.2,28.9,30.46,SE,135,0.0,0.0,69,0.00,CLR,,0.00,WeatherDisplay:10.37,2013-11-29 15:40:00,
2013-11-29 10:50:00,38.2,29.3,30.45,SE,135,0.0,0.0,70,0.00,CLR,,0.00,WeatherDisplay:10.37,2013-11-29 15:50:00,
2013-11-29 11:00:00,38.0,29.1,30.45,SE,135,0.0,1.0,70,0.00,CLR,,0.00,WeatherDisplay:10.37,2013-11-29 16:00:00,
2013-11-29 11:10:00,38.0,29.1,30.45,SE,135,0.0,1.0,70,0.00,CLR,,0.00,WeatherDisplay:10.37,2013-11-29 16:10:00,
2013-11-29 11:20:00,37.9,29.0,30.45,SE,135,0.0,1.0,70,0.00,CLR,,0.00,WeatherDisplay:10.37,2013-11-29 16:20:00,
2013-11-29 23:23:00,38.0,29.1,30.45,SSE,156,0.0,9.0,70,0.00,CLR,,0.00,WeatherDisplay:10.37,2013-11-30 04:23:00,
2013-11-29 23:24:00,38.0,29.1,30.45,SSE,156,0.0,9.0,70,0.00,CLR,,0.00,WeatherDisplay:10.37,2013-11-30 04:24:00,
2013-11-29 23:29:00,38.1,29.2,30.45,SSE,156,0.0,0.0,70,0.00,OVC,,0.00,WeatherDisplay:10.37,2013-11-30 04:29:00,
2013-11-29 23:34:00,38.1,29.2,30.45,SSE,156,0.0,0.0,70,0.00,OVC,,0.00,WeatherDisplay:10.37,2013-11-30 04:34:00,
2013-11-29 23:39:00,38.1,29.2,30.45,SSE,156,0.0,0.0,70,0.00,OVC,,0.00,WeatherDisplay:10.37,2013-11-30 04:39:00,
2013-11-29 23:44:00,38.0,29.1,30.45,SSE,156,0.0,0.0,70,0.00,OVC,,0.00,WeatherDisplay:10.37,2013-11-30 04:44:00,
2013-11-29 23:49:00,38.2,28.9,30.45,SSE,156,0.0,0.0,69,0.00,CLR,,0.00,WeatherDisplay:10.37,2013-11-30 04:49:00,
2013-11-29 23:54:00,38.2,28.9,30.45,SSE,156,0.0,0.0,69,0.00,CLR,,0.00,WeatherDisplay:10.37,2013-11-30 04:54:00,
2013-11-29 23:59:00,38.2,28.9,30.45,SSE,156,0.0,0.0,69,0.00,CLR,,0.00,WeatherDisplay:10.37,2013-11-30 04:59:00,